Time,TemperatureF,DewpointF,PressureIn,WindDirection,WindDirectionDegrees,WindSpeedMPH,WindSpeedGustMPH,Humidity,HourlyPrecipIn,Conditions,Clouds,dailyrainin,SolarRadiationWatts/m^2,SoftwareType,DateUTC
2013-06-28 00:05:00,56.4,41.0,29.65,SE,126,8.0,17.0,57,0.00,,,0.19,0,weatherlink.com 1.10,2013-06-28 06:05:00,
2013-06-28 00:20:00,56.5,41.0,29.65,ESE,107,14.0,16.0,57,0.00,,,0.00,0,weatherlink.com 1.10,2013-06-28 06:20:00,
2013-06-28 00:35:00,56.7,41.0,29.65,East,96,13.0,19.0,57,0.00,,,0.00,0,weatherlink.com 1.10,2013-06-28 06:35:00,
2013-06-28 00:50:00,56.5,41.0,29.65,ESE,119,19.0,19.0,57,0.00,,,0.00,0,weatherlink.com 1.10,2013-06-28 06:50:00,
2013-06-28 01:05:00,56.4,41.0,29.66,SE,138,8.0,22.0,57,0.00,,,0.00,0,weatherlink.com 1.10,2013-06-28 07:05:00,
2013-06-28 01:20:00,56.0,42.0,29.65,East,96,17.0,25.0,59,0.00,,,0.00,0,weatherlink.com 1.10,2013-06-28 07:20:00,
2013-06-28 01:35:00,55.9,42.0,29.66,SE,127,11.0,19.0,60,0.00,,,0.00,0,weatherlink.com 1.10,2013-06-28 07:35:00,
2013-06-28 01:50:00,55.3,42.0,29.64,East,87,16.0,19.0,62,0.00,,,0.00,0,weatherlink.com 1.10,2013-06-28 07:50:00,
2013-06-28 02:05:00,55.1,42.0,29.65,ESE,116,11.0,18.0,62,0.00,,,0.00,0,weatherlink.com 1.10,2013-06-28 08:05:00,
2013-06-28 02:20:00,54.9,42.0,29.64,ESE,117,14.0,22.0,63,0.00,,,0.00,0,weatherlink.com 1.10,2013-06-28 08:20:00,
2013-06-28 02:35:00,54.5,42.0,29.64,ESE,105,11.0,19.0,64,0.00,,,0.00,0,weatherlink.com 1.10,2013-06-28 08:35:00,
2013-06-28 02:50:00,54.2,43.0,29.64,ESE,105,8.0,21.0,66,0.00,,,0.00,0,weatherlink.com 1.10,2013-06-28 08:50:00,
2013-06-28 03:05:00,54.0,43.0,29.64,ESE,117,13.0,14.0,67,0.00,,,0.00,0,weatherlink.com 1.10,2013-06-28 09:05:00,
2013-06-28 03:20:00,53.9,43.0,29.64,SE,134,9.0,14.0,68,0.00,,,0.00,0,weatherlink.com 1.10,2013-06-28 09:20:00,
2013-06-28 03:35:00,53.5,44.0,29.65,ESE,105,4.0,11.0,69,0.00,,,0.00,0,weatherlink.com 1.10,2013-06-28 09:35:00,
2013-06-28 03:51:00,52.8,44.0,29.65,ESE,102,4.0,6.0,71,0.00,,,0.00,0,weatherlink.com 1.10,2013-06-28 09:51:00,
2013-06-28 04:06:00,52.4,44.0,29.64,ESE,118,2.0,8.0,72,0.00,,,0.00,0,weatherlink.com 1.10,2013-06-28 10:06:00,
2013-06-28 04:21:00,52.1,44.0,29.64,ESE,121,2.0,3.0,73,0.00,,,0.00,0,weatherlink.com 1.10,2013-06-28 10:21:00,
2013-06-28 04:36:00,51.7,44.0,29.63,South,184,2.0,3.0,74,0.00,,,0.00,0,weatherlink.com 1.10,2013-06-28 10:36:00,
2013-06-28 04:51:00,51.2,43.0,29.63,South,181,0.0,2.0,74,0.00,,,0.00,0,weatherlink.com 1.10,2013-06-28 10:51:00,
2013-06-28 05:06:00,50.5,43.0,29.62,South,188,0.0,2.0,74,0.00,,,0.00,0,weatherlink.com 1.10,2013-06-28 11:06:00,
2013-06-28 05:21:00,50.1,42.0,29.63,ESE,123,0.0,2.0,74,0.00,,,0.00,0,weatherlink.com 1.10,2013-06-28 11:21:00,
2013-06-28 05:36:00,49.7,42.0,29.63,SE,133,0.0,2.0,76,0.00,,,0.00,0,weatherlink.com 1.10,2013-06-28 11:36:00,
2013-06-28 05:51:00,50.8,42.0,29.63,SE,137,0.0,2.0,73,0.00,,,0.00,9,weatherlink.com 1.10,2013-06-28 11:51:00,
2013-06-28 06:06:00,48.6,42.0,29.64,SE,131,0.0,2.0,78,0.00,,,0.00,18,weatherlink.com 1.10,2013-06-28 12:06:00,
2013-06-28 06:21:00,51.0,43.0,29.64,SE,131,0.0,0.0,74,0.00,,,0.00,53,weatherlink.com 1.10,2013-06-28 12:21:00,
2013-06-28 06:36:00,53.5,46.0,29.64,SE,131,0.0,0.0,75,0.00,,,0.00,98,weatherlink.com 1.10,2013-06-28 12:36:00,
2013-06-28 06:51:00,55.3,45.0,29.64,SE,131,0.0,0.0,68,0.00,,,0.00,134,weatherlink.com 1.10,2013-06-28 12:51:00,
2013-06-28 07:06:00,55.6,44.0,29.64,SE,131,0.0,0.0,66,0.00,,,0.00,171,weatherlink.com 1.10,2013-06-28 13:06:00,
2013-06-28 07:21:00,57.8,45.0,29.64,SSE,154,0.0,2.0,62,0.00,,,0.00,214,weatherlink.com 1.10,2013-06-28 13:21:00,
2013-06-28 07:36:00,60.4,44.0,29.64,ESE,116,0.0,2.0,55,0.00,,,0.00,260,weatherlink.com 1.10,2013-06-28 13:36:00,
2013-06-28 07:51:00,61.8,44.0,29.64,ESE,113,0.0,1.0,52,0.00,,,0.00,309,weatherlink.com 1.10,2013-06-28 13:51:00,
2013-06-28 08:06:00,61.7,43.0,29.65,SW,236,1.0,3.0,51,0.00,,,0.00,355,weatherlink.com 1.10,2013-06-28 14:06:00,
2013-06-28 08:21:00,61.8,44.0,29.65,WSW,243,1.0,3.0,53,0.00,,,0.00,410,weatherlink.com 1.10,2013-06-28 14:21:00,
2013-06-28 08:36:00,62.5,46.0,29.65,West,271,1.0,3.0,56,0.00,,,0.00,392,weatherlink.com 1.10,2013-06-28 14:36:00,
2013-06-28 08:52:00,63.0,45.0,29.65,West,275,0.0,3.0,52,0.00,,,0.00,504,weatherlink.com 1.10,2013-06-28 14:52:00,
2013-06-28 09:07:00,63.9,46.0,29.64,West,278,0.0,3.0,52,0.00,,,0.00,571,weatherlink.com 1.10,2013-06-28 15:07:00,
2013-06-28 09:22:00,64.7,47.0,29.65,NW,313,0.0,4.0,53,0.00,,,0.00,563,weatherlink.com 1.10,2013-06-28 15:22:00,
2013-06-28 09:37:00,66.1,45.0,29.65,NW,318,2.0,2.0,47,0.00,,,0.00,663,weatherlink.com 1.10,2013-06-28 15:37:00,
2013-06-28 09:52:00,68.3,48.0,29.65,NW,311,0.0,3.0,49,0.00,,,0.00,705,weatherlink.com 1.10,2013-06-28 15:52:00,
2013-06-28 10:07:00,70.2,43.0,29.64,West,276,3.0,8.0,37,0.00,,,0.00,742,weatherlink.com 1.10,2013-06-28 16:07:00,
2013-06-28 10:22:00,71.4,45.0,29.64,WNW,292,4.0,5.0,39,0.00,,,0.00,779,weatherlink.com 1.10,2013-06-28 16:22:00,
2013-06-28 10:37:00,72.8,43.0,29.64,NW,323,1.0,5.0,34,0.00,,,0.00,802,weatherlink.com 1.10,2013-06-28 16:37:00,
2013-06-28 10:52:00,74.3,41.0,29.64,NW,320,3.0,5.0,30,0.00,,,0.00,830,weatherlink.com 1.10,2013-06-28 16:52:00,
2013-06-28 11:07:00,74.6,33.0,29.64,NE,38,0.0,4.0,22,0.00,,,0.00,877,weatherlink.com 1.10,2013-06-28 17:07:00,
2013-06-28 11:22:00,75.8,38.0,29.64,WNW,294,1.0,4.0,26,0.00,,,0.00,803,weatherlink.com 1.10,2013-06-28 17:22:00,
2013-06-28 11:37:00,76.9,33.0,29.64,East,85,1.0,7.0,20,0.00,,,0.00,984,weatherlink.com 1.10,2013-06-28 17:37:00,
2013-06-28 11:52:00,76.2,36.0,29.64,ENE,59,2.0,7.0,23,0.00,,,0.00,983,weatherlink.com 1.10,2013-06-28 17:52:00,
2013-06-28 12:07:00,79.1,33.0,29.64,NW,309,3.0,7.0,19,0.00,,,0.00,993,weatherlink.com 1.10,2013-06-28 18:07:00,
2013-06-28 12:22:00,80.1,30.0,29.63,NW,311,4.0,5.0,16,0.00,,,0.00,947,weatherlink.com 1.10,2013-06-28 18:22:00,
2013-06-28 12:37:00,79.3,31.0,29.62,West,266,0.0,9.0,17,0.00,,,0.00,962,weatherlink.com 1.10,2013-06-28 18:37:00,
2013-06-28 12:52:00,80.2,30.0,29.62,WNW,282,4.0,9.0,16,0.00,,,0.00,1027,weatherlink.com 1.10,2013-06-28 18:52:00,
2013-06-28 13:07:00,78.8,26.0,29.62,ENE,74,3.0,9.0,14,0.00,,,0.00,905,weatherlink.com 1.10,2013-06-28 19:07:00,
2013-06-28 13:22:00,78.9,32.0,29.61,WSW,249,2.0,7.0,18,0.00,,,0.00,984,weatherlink.com 1.10,2013-06-28 19:22:00,
2013-06-28 13:38:00,83.2,27.0,29.60,NW,305,2.0,8.0,13,0.00,,,0.00,1018,weatherlink.com 1.10,2013-06-28 19:38:00,
2013-06-28 13:53:00,81.2,26.0,29.60,North,10,1.0,9.0,13,0.00,,,0.00,1130,weatherlink.com 1.10,2013-06-28 19:53:00,
2013-06-28 14:08:00,78.5,24.0,29.60,ESE,110,2.0,13.0,13,0.00,,,0.00,404,weatherlink.com 1.10,2013-06-28 20:08:00,
2013-06-28 14:23:00,77.5,31.0,29.59,East,88,9.0,11.0,18,0.00,,,0.00,589,weatherlink.com 1.10,2013-06-28 20:23:00,
2013-06-28 14:38:00,76.4,30.0,29.58,East,84,17.0,25.0,18,0.00,,,0.00,707,weatherlink.com 1.10,2013-06-28 20:38:00,
2013-06-28 14:53:00,76.8,31.0,29.58,East,86,21.0,22.0,19,0.00,,,0.00,912,weatherlink.com 1.10,2013-06-28 20:53:00,
2013-06-28 15:08:00,76.9,29.0,29.59,East,95,3.0,14.0,17,0.00,,,0.00,744,weatherlink.com 1.10,2013-06-28 21:08:00,
2013-06-28 15:23:00,77.3,29.0,29.60,ESE,113,12.0,18.0,17,0.00,,,0.00,445,weatherlink.com 1.10,2013-06-28 21:23:00,
2013-06-28 15:38:00,72.1,32.0,29.59,East,98,20.0,31.0,23,0.00,,,0.00,255,weatherlink.com 1.10,2013-06-28 21:38:00,
2013-06-28 15:53:00,72.8,33.0,29.59,ESE,120,20.0,27.0,23,0.00,,,0.00,241,weatherlink.com 1.10,2013-06-28 21:53:00,
2013-06-28 16:08:00,70.7,34.0,29.59,SE,126,10.0,25.0,26,0.00,,,0.00,183,weatherlink.com 1.10,2013-06-28 22:08:00,
2013-06-28 16:23:00,69.0,35.0,29.59,East,94,18.0,21.0,29,0.00,,,0.00,524,weatherlink.com 1.10,2013-06-28 22:23:00,
2013-06-28 16:38:00,68.7,36.0,29.59,East,101,15.0,22.0,30,0.00,,,0.00,338,weatherlink.com 1.10,2013-06-28 22:38:00,
2013-06-28 16:53:00,68.5,36.0,29.59,ESE,104,12.0,19.0,30,0.00,,,0.00,253,weatherlink.com 1.10,2013-06-28 22:53:00,
2013-06-28 17:08:00,69.1,35.0,29.59,ESE,103,11.0,17.0,29,0.00,,,0.00,534,weatherlink.com 1.10,2013-06-28 23:08:00,
2013-06-28 17:23:00,71.8,34.0,29.59,East,100,16.0,19.0,25,0.00,,,0.00,278,weatherlink.com 1.10,2013-06-28 23:23:00,
2013-06-28 17:38:00,69.9,35.0,29.59,East,92,13.0,14.0,28,0.00,,,0.00,70,weatherlink.com 1.10,2013-06-28 23:38:00,
2013-06-28 17:53:00,68.8,35.0,29.61,ESE,123,2.0,12.0,29,0.00,,,0.00,35,weatherlink.com 1.10,2013-06-28 23:53:00,
2013-06-28 18:08:00,68.3,36.0,29.62,ESE,106,0.0,6.0,30,0.00,,,0.00,19,weatherlink.com 1.10,2013-06-29 00:08:00,
2013-06-28 18:23:00,67.5,37.0,29.64,ESE,105,0.0,2.0,33,0.00,,,0.00,9,weatherlink.com 1.10,2013-06-29 00:23:00,
2013-06-28 18:38:00,65.0,39.0,29.67,NE,56,3.0,15.0,38,0.00,,,0.00,5,weatherlink.com 1.10,2013-06-29 00:38:00,
2013-06-28 18:53:00,58.4,43.0,29.70,East,100,6.0,17.0,56,0.01,,,0.01,0,weatherlink.com 1.10,2013-06-29 00:53:00,
2013-06-28 19:08:00,56.2,39.0,29.66,SW,225,4.0,13.0,53,0.01,,,0.01,5,weatherlink.com 1.10,2013-06-29 01:08:00,
2013-06-28 19:23:00,56.3,39.0,29.62,SE,124,15.0,22.0,53,0.02,,,0.02,7,weatherlink.com 1.10,2013-06-29 01:23:00,
2013-06-28 19:38:00,56.5,38.0,29.64,SSE,168,8.0,17.0,51,0.02,,,0.02,16,weatherlink.com 1.10,2013-06-29 01:38:00,
2013-06-28 19:53:00,57.1,40.0,29.65,SSE,150,0.0,8.0,53,0.01,,,0.02,23,weatherlink.com 1.10,2013-06-29 01:53:00,
2013-06-28 20:08:00,56.4,40.0,29.66,SE,136,1.0,4.0,55,0.01,,,0.02,28,weatherlink.com 1.10,2013-06-29 02:08:00,
2013-06-28 20:23:00,56.5,38.0,29.67,SE,136,0.0,2.0,51,0.00,,,0.02,9,weatherlink.com 1.10,2013-06-29 02:23:00,
2013-06-28 20:38:00,57.2,38.0,29.68,West,262,2.0,6.0,49,0.00,,,0.02,0,weatherlink.com 1.10,2013-06-29 02:38:00,
2013-06-28 20:53:00,57.5,38.0,29.68,SSW,207,2.0,6.0,48,0.00,,,0.02,0,weatherlink.com 1.10,2013-06-29 02:53:00,
2013-06-28 21:08:00,57.6,39.0,29.67,SSW,213,2.0,7.0,51,0.00,,,0.02,0,weatherlink.com 1.10,2013-06-29 03:08:00,
2013-06-28 21:23:00,56.0,41.0,29.67,SSE,147,5.0,11.0,57,0.00,,,0.02,0,weatherlink.com 1.10,2013-06-29 03:23:00,
2013-06-28 21:38:00,54.7,41.0,29.67,SSE,155,2.0,11.0,60,0.00,,,0.02,0,weatherlink.com 1.10,2013-06-29 03:38:00,
2013-06-28 21:53:00,54.0,41.0,29.68,SSW,203,4.0,8.0,61,0.00,,,0.02,0,weatherlink.com 1.10,2013-06-29 03:53:00,
2013-06-28 22:08:00,54.3,40.0,29.68,SSW,205,4.0,12.0,59,0.00,,,0.02,0,weatherlink.com 1.10,2013-06-29 04:08:00,
2013-06-28 22:23:00,54.4,40.0,29.68,SW,215,5.0,8.0,58,0.00,,,0.02,0,weatherlink.com 1.10,2013-06-29 04:23:00,
2013-06-28 22:38:00,54.8,40.0,29.69,SE,144,9.0,9.0,57,0.00,,,0.02,0,weatherlink.com 1.10,2013-06-29 04:38:00,
2013-06-28 22:53:00,55.2,39.0,29.69,SE,146,4.0,10.0,55,0.00,,,0.02,0,weatherlink.com 1.10,2013-06-29 04:53:00,
2013-06-28 23:08:00,55.1,39.0,29.70,SSE,151,1.0,6.0,54,0.00,,,0.02,0,weatherlink.com 1.10,2013-06-29 05:08:00,
2013-06-28 23:23:00,54.3,38.0,29.70,ESE,119,5.0,12.0,55,0.00,,,0.02,0,weatherlink.com 1.10,2013-06-29 05:23:00,
2013-06-28 23:38:00,53.4,38.0,29.69,SE,134,3.0,5.0,56,0.00,,,0.02,0,weatherlink.com 1.10,2013-06-29 05:38:00,
2013-06-28 23:53:00,52.3,38.0,29.69,ESE,115,7.0,10.0,59,0.00,,,0.02,0,weatherlink.com 1.10,2013-06-29 05:53:00,